Year,Month,Day,Hour,Minute,Value (Times are PST for temperature in C)
2008,10,22,00,00,9.40
2008,10,22,00,01,9.40
2008,10,22,00,02,9.40
2008,10,22,00,03,9.40
2008,10,22,00,04,9.40
2008,10,22,00,05,9.40
2008,10,22,00,06,9.40
2008,10,22,00,07,9.40
2008,10,22,00,08,9.50
2008,10,22,00,09,9.50
2008,10,22,00,10,9.50
2008,10,22,00,11,9.50
2008,10,22,00,12,9.50
2008,10,22,00,13,9.50
2008,10,22,01,02,9.50
2008,10,22,01,03,9.50
2008,10,22,01,04,9.50
2008,10,22,01,05,9.50
2008,10,22,01,06,9.50
2008,10,22,01,07,9.50
2008,10,22,01,08,9.50
2008,10,22,01,09,9.40
2008,10,22,01,10,9.40
2008,10,22,01,11,9.40
2008,10,22,01,12,9.40
2008,10,22,01,13,9.40
2008,10,22,01,14,9.40
2008,10,22,01,15,9.40
2008,10,22,01,16,9.40
2008,10,22,01,17,9.40
2008,10,22,01,18,9.40
2008,10,22,01,19,9.50
2008,10,22,01,20,9.50
2008,10,22,01,21,9.50
2008,10,22,01,22,9.50
2008,10,22,01,23,9.50
2008,10,22,01,24,9.50
2008,10,22,01,25,9.50
2008,10,22,01,26,9.50
2008,10,22,01,27,9.50
2008,10,22,01,28,9.50
2008,10,22,01,29,9.50
2008,10,22,01,30,9.50
2008,10,22,01,31,9.50
2008,10,22,01,32,9.50
2008,10,22,01,33,9.50
2008,10,22,01,34,9.60
2008,10,22,01,35,9.60
2008,10,22,01,36,9.60
2008,10,22,01,37,9.60
2008,10,22,01,38,9.60
2008,10,22,01,39,9.60
2008,10,22,01,40,9.60
2008,10,22,01,41,9.60
2008,10,22,01,42,9.60
2008,10,22,01,43,9.70
2008,10,22,01,44,9.70
2008,10,22,01,45,9.70
2008,10,22,01,46,9.70
2008,10,22,01,47,9.70
2008,10,22,01,48,9.70
2008,10,22,01,49,9.70
2008,10,22,01,50,9.70
2008,10,22,01,51,9.70
2008,10,22,01,52,9.70
2008,10,22,01,53,9.70
2008,10,22,01,54,9.70
2008,10,22,01,55,9.70
2008,10,22,01,56,9.70
2008,10,22,01,57,9.70
2008,10,22,01,58,9.70
2008,10,22,01,59,9.70
2008,10,22,02,00,9.70
2008,10,22,02,01,9.70
2008,10,22,02,02,9.70
2008,10,22,02,03,9.70
2008,10,22,02,04,9.70
2008,10,22,02,05,9.70
2008,10,22,02,06,9.80
2008,10,22,02,07,9.80
2008,10,22,02,08,9.80
2008,10,22,02,09,9.70
2008,10,22,02,10,9.70
2008,10,22,02,11,9.70
2008,10,22,02,12,9.70
2008,10,22,02,13,9.80
2008,10,22,02,14,9.80
2008,10,22,02,15,9.80
2008,10,22,02,16,9.80
2008,10,22,02,17,9.80
2008,10,22,02,18,9.80
2008,10,22,02,19,9.80
2008,10,22,02,20,9.80
2008,10,22,02,21,9.80
2008,10,22,02,22,9.80
2008,10,22,02,23,9.80
2008,10,22,02,24,9.80
2008,10,22,02,25,9.80
2008,10,22,02,26,9.80
2008,10,22,02,27,9.80
2008,10,22,02,28,9.80
2008,10,22,02,29,9.80
2008,10,22,02,30,9.80
2008,10,22,02,31,9.80
2008,10,22,02,32,9.80
2008,10,22,02,33,9.80
2008,10,22,02,34,9.80
2008,10,22,02,35,9.80
2008,10,22,02,36,9.80
2008,10,22,02,37,9.80
2008,10,22,02,38,9.90
2008,10,22,02,39,9.90
2008,10,22,02,40,9.90
2008,10,22,02,41,9.90
2008,10,22,02,42,9.90
2008,10,22,02,43,9.90
2008,10,22,02,44,9.90
2008,10,22,02,45,9.90
2008,10,22,02,46,9.90
2008,10,22,02,47,9.90
2008,10,22,02,48,9.90
2008,10,22,02,49,9.90
2008,10,22,02,50,9.90
2008,10,22,02,51,9.90
2008,10,22,02,52,9.90
2008,10,22,02,53,9.90
2008,10,22,02,54,9.90
2008,10,22,02,55,9.90
2008,10,22,02,56,9.90
2008,10,22,02,57,9.90
2008,10,22,02,58,9.90
2008,10,22,02,59,9.90
2008,10,22,03,00,9.90
2008,10,22,03,01,9.90
2008,10,22,03,02,9.90
2008,10,22,03,03,9.90
2008,10,22,03,04,9.90
2008,10,22,03,05,9.90
2008,10,22,03,06,9.90
2008,10,22,03,07,9.80
2008,10,22,03,08,9.80
2008,10,22,03,09,9.80
2008,10,22,03,10,9.90
2008,10,22,03,11,9.90
2008,10,22,03,12,9.90
2008,10,22,03,13,9.90
2008,10,22,03,14,9.90
2008,10,22,03,15,9.90
2008,10,22,03,16,9.90
2008,10,22,03,17,9.90
2008,10,22,03,18,9.90
2008,10,22,03,19,9.90
2008,10,22,03,20,9.90
2008,10,22,03,21,9.90
2008,10,22,03,22,9.80
2008,10,22,03,23,9.80
2008,10,22,03,24,9.80
2008,10,22,03,25,9.80
2008,10,22,03,26,9.80
2008,10,22,03,27,9.80
2008,10,22,03,28,9.80
2008,10,22,03,29,9.80
2008,10,22,03,30,9.80
2008,10,22,03,31,9.80
2008,10,22,03,32,9.80
2008,10,22,03,33,9.80
2008,10,22,03,34,9.80
2008,10,22,03,35,9.80
2008,10,22,03,36,9.80
2008,10,22,03,37,9.80
2008,10,22,03,38,9.80
2008,10,22,03,39,9.80
2008,10,22,03,40,9.70
2008,10,22,03,41,9.70
2008,10,22,03,42,9.70
2008,10,22,03,43,9.70
2008,10,22,03,44,9.70
2008,10,22,03,45,9.70
2008,10,22,03,46,9.70
2008,10,22,03,47,9.70
2008,10,22,03,48,9.70
2008,10,22,03,49,9.70
2008,10,22,03,50,9.70
2008,10,22,03,51,9.70
2008,10,22,03,52,9.70
2008,10,22,03,53,9.70
2008,10,22,03,54,9.70
2008,10,22,03,55,9.70
2008,10,22,03,56,9.70
2008,10,22,03,57,9.70
2008,10,22,03,58,9.70
2008,10,22,03,59,9.70
2008,10,22,04,00,9.60
2008,10,22,04,01,9.60
2008,10,22,04,02,9.60
2008,10,22,04,03,9.60
2008,10,22,04,04,9.60
2008,10,22,04,05,9.60
2008,10,22,04,06,9.60
2008,10,22,04,07,9.60
2008,10,22,04,08,9.60
2008,10,22,04,09,9.60
2008,10,22,04,10,9.50
2008,10,22,04,11,9.50
2008,10,22,04,12,9.50
2008,10,22,04,13,9.50
2008,10,22,04,14,9.50
2008,10,22,04,15,9.50
2008,10,22,04,16,9.40
2008,10,22,04,17,9.40
2008,10,22,04,18,9.40
2008,10,22,04,19,9.40
2008,10,22,04,20,9.30
2008,10,22,04,21,9.30
2008,10,22,04,22,9.20
2008,10,22,04,23,9.20
2008,10,22,04,24,9.20
2008,10,22,04,25,9.20
2008,10,22,04,26,9.10
2008,10,22,04,27,9.10
2008,10,22,04,28,9.00
2008,10,22,04,29,9.00
2008,10,22,04,30,9.00
2008,10,22,04,31,8.90
2008,10,22,04,32,8.90
2008,10,22,04,33,8.80
2008,10,22,04,34,8.80
2008,10,22,04,35,8.80
2008,10,22,04,36,8.70
2008,10,22,04,37,8.70
2008,10,22,04,38,8.70
2008,10,22,04,39,8.60
2008,10,22,04,40,8.60
2008,10,22,04,41,8.50
2008,10,22,04,42,8.50
2008,10,22,04,43,8.40
2008,10,22,04,44,8.40
2008,10,22,04,45,8.30
2008,10,22,04,46,8.30
2008,10,22,04,47,8.20
2008,10,22,04,48,8.20
2008,10,22,04,49,8.10
2008,10,22,04,50,8.10
2008,10,22,04,51,8.00
2008,10,22,04,52,8.00
2008,10,22,04,53,7.90
2008,10,22,04,54,7.90
2008,10,22,04,55,7.80
2008,10,22,04,56,7.80
2008,10,22,04,57,7.70
2008,10,22,04,58,7.70
2008,10,22,04,59,7.60
2008,10,22,05,00,7.60
2008,10,22,05,01,7.60
2008,10,22,05,02,7.50
2008,10,22,05,03,7.50
2008,10,22,05,04,7.40
2008,10,22,05,05,7.40
2008,10,22,05,06,7.40
2008,10,22,05,07,7.30
2008,10,22,05,08,7.30
2008,10,22,05,09,7.30
2008,10,22,05,10,7.30
2008,10,22,05,11,7.30
2008,10,22,05,12,7.30
2008,10,22,05,13,7.30
2008,10,22,05,14,7.30
2008,10,22,05,15,7.30
2008,10,22,05,16,7.30
2008,10,22,05,17,7.20
2008,10,22,05,18,7.20
2008,10,22,05,19,7.20
2008,10,22,05,20,7.20
2008,10,22,05,21,7.20
2008,10,22,05,22,7.20
2008,10,22,05,23,7.20
2008,10,22,05,24,7.20
2008,10,22,05,25,7.20
2008,10,22,05,26,7.20
2008,10,22,05,27,7.20
2008,10,22,05,28,7.20
2008,10,22,05,29,7.20
2008,10,22,05,30,7.20
2008,10,22,05,31,7.20
2008,10,22,05,32,7.20
2008,10,22,05,33,7.20
2008,10,22,05,34,7.20
2008,10,22,05,35,7.20
2008,10,22,05,36,7.30
2008,10,22,05,37,7.30
2008,10,22,05,38,7.30
2008,10,22,05,39,7.30
2008,10,22,05,40,7.30
2008,10,22,05,41,7.30
2008,10,22,05,42,7.30
2008,10,22,05,43,7.30
2008,10,22,05,44,7.30
2008,10,22,05,45,7.30
2008,10,22,05,46,7.30
2008,10,22,05,47,7.30
2008,10,22,05,48,7.30
2008,10,22,05,49,7.30
2008,10,22,05,50,7.30
2008,10,22,05,51,7.30
2008,10,22,05,52,7.40
2008,10,22,05,53,7.40
2008,10,22,05,54,7.40
2008,10,22,05,55,7.40
2008,10,22,05,56,7.40
2008,10,22,05,57,7.40
2008,10,22,05,58,7.40
2008,10,22,05,59,7.40
2008,10,22,06,00,7.40
2008,10,22,06,01,7.40
2008,10,22,06,02,7.40
2008,10,22,06,03,7.40
2008,10,22,06,04,7.30
2008,10,22,06,05,7.30
2008,10,22,06,06,7.30
2008,10,22,06,07,7.30
2008,10,22,06,08,7.30
2008,10,22,06,09,7.30
2008,10,22,06,10,7.30
2008,10,22,06,11,7.30
2008,10,22,06,12,7.30
2008,10,22,06,13,7.30
2008,10,22,06,14,7.30
2008,10,22,06,15,7.30
2008,10,22,06,16,7.30
2008,10,22,06,17,7.30
2008,10,22,06,18,7.30
2008,10,22,06,19,7.30
2008,10,22,06,20,7.30
2008,10,22,06,21,7.30
2008,10,22,06,22,7.30
2008,10,22,06,23,7.30
2008,10,22,06,24,7.30
2008,10,22,06,25,7.30
2008,10,22,06,26,7.30
2008,10,22,06,27,7.30
2008,10,22,06,28,7.30
2008,10,22,06,29,7.30
2008,10,22,06,30,7.30
2008,10,22,06,31,7.30
2008,10,22,06,32,7.30
2008,10,22,06,33,7.30
2008,10,22,06,34,7.30
2008,10,22,06,35,7.30
2008,10,22,06,36,7.30
2008,10,22,06,37,7.30
2008,10,22,06,38,7.30
2008,10,22,06,39,7.30
2008,10,22,06,40,7.30
2008,10,22,06,41,7.30
2008,10,22,06,42,7.30
2008,10,22,06,43,7.30
2008,10,22,06,44,7.30
2008,10,22,06,45,7.30
2008,10,22,06,46,7.30
2008,10,22,06,47,7.30
2008,10,22,06,48,7.30
2008,10,22,06,49,7.30
2008,10,22,06,50,7.30
2008,10,22,06,51,7.30
2008,10,22,06,52,7.30
2008,10,22,06,53,7.30
2008,10,22,06,54,7.30
2008,10,22,06,55,7.30
2008,10,22,06,56,7.30
2008,10,22,06,57,7.30
2008,10,22,06,58,7.30
2008,10,22,06,59,7.30
2008,10,22,07,00,7.30
2008,10,22,07,01,7.30
2008,10,22,07,02,7.30
2008,10,22,07,03,7.30
2008,10,22,07,04,7.30
2008,10,22,07,05,7.30
2008,10,22,07,06,7.30
2008,10,22,07,07,7.30
2008,10,22,07,08,7.30
2008,10,22,07,09,7.30
2008,10,22,07,10,7.30
2008,10,22,07,11,7.30
2008,10,22,07,12,7.30
2008,10,22,07,13,7.30
2008,10,22,07,14,7.30
2008,10,22,07,15,7.30
2008,10,22,07,16,7.30
2008,10,22,07,17,7.30
2008,10,22,07,18,7.30
2008,10,22,07,19,7.30
2008,10,22,07,20,7.30
2008,10,22,07,21,7.30
2008,10,22,07,22,7.30
2008,10,22,07,23,7.30
2008,10,22,07,24,7.30
2008,10,22,07,25,7.30
2008,10,22,07,26,7.30
2008,10,22,07,27,7.30
2008,10,22,07,28,7.30
2008,10,22,07,29,7.30
2008,10,22,07,30,7.30
2008,10,22,07,31,7.30
2008,10,22,07,32,7.30
2008,10,22,07,33,7.30
2008,10,22,07,34,7.30
2008,10,22,07,35,7.30
2008,10,22,07,36,7.30
2008,10,22,07,37,7.30
2008,10,22,07,38,7.30
2008,10,22,07,39,7.30
2008,10,22,07,40,7.30
2008,10,22,07,41,7.30
2008,10,22,07,42,7.30
2008,10,22,07,43,7.30
2008,10,22,07,44,7.30
2008,10,22,07,45,7.30
2008,10,22,07,46,7.30
2008,10,22,07,47,7.30
2008,10,22,07,48,7.30
2008,10,22,07,49,7.30
2008,10,22,07,50,7.30
2008,10,22,07,51,7.30
2008,10,22,07,52,7.30
2008,10,22,07,53,7.20
2008,10,22,07,54,7.20
2008,10,22,07,55,7.20
2008,10,22,07,56,7.20
2008,10,22,07,57,7.20
2008,10,22,07,58,7.10
2008,10,22,07,59,7.10
2008,10,22,08,00,7.10
2008,10,22,08,01,7.10
2008,10,22,08,02,7.00
2008,10,22,08,03,7.00
2008,10,22,08,04,7.00
2008,10,22,08,05,7.00
2008,10,22,08,06,7.00
2008,10,22,08,07,6.90
2008,10,22,08,08,6.90
2008,10,22,08,09,6.90
2008,10,22,08,10,6.90
2008,10,22,08,11,6.80
2008,10,22,08,12,6.80
2008,10,22,08,13,6.80
2008,10,22,08,14,6.80
2008,10,22,08,15,6.80
2008,10,22,08,16,6.80
2008,10,22,08,17,6.80
2008,10,22,08,18,6.80
2008,10,22,08,19,6.80
2008,10,22,08,20,6.80
2008,10,22,08,21,6.80
2008,10,22,08,22,6.80
2008,10,22,08,23,6.80
2008,10,22,08,24,6.80
2008,10,22,08,25,6.80
2008,10,22,08,26,6.70
2008,10,22,08,27,6.70
2008,10,22,08,28,6.70
2008,10,22,08,29,6.70
2008,10,22,08,30,6.70
2008,10,22,08,31,6.70
2008,10,22,08,32,6.70
2008,10,22,08,33,6.70
2008,10,22,08,34,6.70
2008,10,22,08,35,6.70
2008,10,22,08,36,6.70
2008,10,22,08,37,6.60
2008,10,22,08,38,6.60
2008,10,22,08,39,6.60
2008,10,22,08,40,6.60
2008,10,22,08,41,6.60
2008,10,22,08,42,6.60
2008,10,22,08,43,6.60
2008,10,22,08,44,6.60
2008,10,22,08,45,6.60
2008,10,22,08,46,6.60
2008,10,22,08,47,6.60
2008,10,22,08,48,6.60
2008,10,22,08,49,6.60
2008,10,22,08,50,6.60
2008,10,22,08,51,6.70
2008,10,22,08,52,6.70
2008,10,22,08,53,6.70
2008,10,22,08,54,6.70
2008,10,22,08,55,6.70
2008,10,22,08,56,6.70
2008,10,22,08,57,6.60
2008,10,22,08,58,6.60
2008,10,22,08,59,6.70
2008,10,22,09,00,6.70
2008,10,22,09,01,6.70
2008,10,22,09,02,6.70
2008,10,22,09,03,6.70
2008,10,22,09,04,6.70
2008,10,22,09,05,6.70
2008,10,22,09,06,6.80
2008,10,22,09,07,6.80
2008,10,22,09,08,6.80
2008,10,22,09,09,6.80
2008,10,22,09,10,6.80
2008,10,22,09,11,6.80
2008,10,22,09,12,6.80
2008,10,22,09,13,6.90
2008,10,22,09,14,6.90
2008,10,22,09,15,6.90
2008,10,22,09,16,6.90
2008,10,22,09,17,6.90
2008,10,22,09,18,7.00
2008,10,22,09,19,7.00
2008,10,22,09,20,7.00
2008,10,22,09,21,7.00
2008,10,22,09,22,7.10
2008,10,22,09,23,7.10
2008,10,22,09,24,7.10
2008,10,22,09,25,7.10
2008,10,22,09,26,7.10
2008,10,22,09,27,7.20
2008,10,22,09,28,7.20
2008,10,22,09,29,7.20
2008,10,22,09,30,7.30
2008,10,22,09,31,7.30
2008,10,22,09,32,7.30
2008,10,22,09,33,7.30
2008,10,22,09,34,7.40
2008,10,22,09,35,7.40
2008,10,22,09,36,7.40
2008,10,22,09,37,7.40
2008,10,22,09,38,7.50
2008,10,22,09,39,7.50
2008,10,22,09,40,7.60
2008,10,22,09,41,7.60
2008,10,22,09,42,7.70
2008,10,22,09,43,7.80
2008,10,22,09,44,7.80
2008,10,22,09,45,7.90
2008,10,22,09,46,8.00
2008,10,22,09,47,8.10
2008,10,22,09,48,8.20
2008,10,22,09,49,8.40
2008,10,22,09,50,8.50
2008,10,22,09,51,8.60
2008,10,22,09,52,8.70
2008,10,22,09,53,8.80
2008,10,22,09,54,8.90
2008,10,22,09,55,9.00
2008,10,22,09,56,9.10
2008,10,22,09,57,9.20
2008,10,22,09,58,9.30
2008,10,22,09,59,9.40
2008,10,22,10,00,9.50
2008,10,22,10,01,9.60
2008,10,22,10,02,9.70
2008,10,22,10,03,9.70
2008,10,22,10,04,9.90
2008,10,22,10,05,10.00
2008,10,22,10,06,10.10
2008,10,22,10,07,10.20
2008,10,22,10,08,10.20
2008,10,22,10,09,10.30
2008,10,22,10,10,10.40
2008,10,22,10,11,10.50
2008,10,22,10,12,10.60
2008,10,22,10,13,10.60
2008,10,22,10,14,10.70
2008,10,22,10,15,10.80
2008,10,22,10,16,10.90
2008,10,22,10,17,11.00
2008,10,22,10,18,11.10
2008,10,22,10,19,11.20
2008,10,22,10,20,11.20
2008,10,22,10,21,11.20
2008,10,22,10,22,11.20
2008,10,22,10,23,11.20
2008,10,22,10,24,11.10
2008,10,22,10,25,11.10
2008,10,22,10,26,11.20
2008,10,22,10,27,11.20
2008,10,22,10,28,11.20
2008,10,22,10,29,11.30
2008,10,22,10,30,11.30
2008,10,22,10,31,11.40
2008,10,22,10,32,11.60
2008,10,22,10,33,11.60
2008,10,22,10,34,11.70
2008,10,22,10,35,11.80
2008,10,22,10,36,11.80
2008,10,22,10,37,11.90
2008,10,22,10,38,12.00
2008,10,22,10,39,12.00
2008,10,22,10,40,12.10
2008,10,22,10,41,12.10
2008,10,22,10,42,12.20
2008,10,22,10,43,12.30
2008,10,22,10,44,12.30
2008,10,22,10,45,12.30
2008,10,22,10,46,12.30
2008,10,22,10,47,12.30
2008,10,22,10,48,12.30
2008,10,22,10,49,12.30
2008,10,22,10,50,12.40
2008,10,22,10,51,12.40
2008,10,22,10,52,12.40
2008,10,22,10,53,12.40
2008,10,22,10,54,12.40
2008,10,22,10,55,12.40
2008,10,22,10,56,12.40
2008,10,22,10,57,12.50
2008,10,22,10,58,12.50
2008,10,22,10,59,12.50
2008,10,22,11,00,12.40
2008,10,22,11,01,12.40
2008,10,22,11,02,12.40
2008,10,22,11,03,12.30
2008,10,22,11,04,12.40
2008,10,22,11,05,12.40
2008,10,22,11,06,12.40
2008,10,22,11,07,12.50
2008,10,22,11,08,12.50
2008,10,22,11,09,12.50
2008,10,22,11,10,12.50
2008,10,22,11,11,12.50
2008,10,22,11,12,12.60
2008,10,22,11,13,12.70
2008,10,22,11,14,12.80
2008,10,22,11,15,12.90
2008,10,22,11,16,13.00
2008,10,22,11,17,13.10
2008,10,22,11,18,13.10
2008,10,22,11,19,13.20
2008,10,22,11,20,13.20
2008,10,22,11,21,13.30
2008,10,22,11,22,13.30
2008,10,22,11,23,13.30
2008,10,22,11,24,13.30
2008,10,22,11,25,13.30
2008,10,22,11,26,13.30
2008,10,22,11,27,13.20
2008,10,22,11,28,13.20
2008,10,22,11,29,13.30
2008,10,22,11,30,13.30
2008,10,22,11,31,13.30
2008,10,22,11,32,13.40
2008,10,22,11,33,13.50
2008,10,22,11,34,13.50
2008,10,22,11,35,13.60
2008,10,22,11,36,13.70
2008,10,22,11,37,13.70
2008,10,22,11,38,13.70
2008,10,22,11,39,13.80
2008,10,22,11,40,13.80
2008,10,22,11,41,13.90
2008,10,22,11,42,13.90
2008,10,22,11,43,13.90
2008,10,22,11,44,13.80
2008,10,22,11,45,13.80
2008,10,22,11,46,13.70
2008,10,22,11,47,13.70
2008,10,22,11,48,13.70
2008,10,22,11,49,13.80
2008,10,22,11,50,13.80
2008,10,22,11,51,13.80
2008,10,22,11,52,13.90
2008,10,22,11,53,13.90
2008,10,22,11,54,13.90
2008,10,22,11,55,13.80
2008,10,22,11,56,13.80
2008,10,22,11,57,13.70
2008,10,22,11,58,13.70
2008,10,22,11,59,13.70
2008,10,22,12,00,13.70
2008,10,22,12,01,13.70
2008,10,22,12,02,13.60
2008,10,22,12,03,13.60
2008,10,22,12,04,13.60
2008,10,22,12,05,13.50
2008,10,22,12,06,13.50
2008,10,22,12,07,13.50
2008,10,22,12,08,13.50
2008,10,22,12,09,13.60
2008,10,22,12,10,13.60
2008,10,22,12,11,13.60
2008,10,22,12,12,13.70
2008,10,22,12,13,13.70
2008,10,22,12,14,13.70
2008,10,22,12,15,13.70
2008,10,22,12,16,13.70
2008,10,22,12,17,13.70
2008,10,22,12,18,13.70
2008,10,22,12,19,13.70
2008,10,22,12,20,13.70
2008,10,22,12,21,13.70
2008,10,22,12,22,13.60
2008,10,22,12,23,13.50
2008,10,22,12,24,13.50
2008,10,22,12,25,13.50
2008,10,22,12,26,13.50
2008,10,22,12,27,13.40
2008,10,22,12,28,13.40
2008,10,22,12,29,13.40
2008,10,22,12,30,13.40
2008,10,22,12,31,13.50
2008,10,22,12,32,13.50
2008,10,22,12,33,13.60
2008,10,22,12,34,13.60
2008,10,22,12,35,13.70
2008,10,22,12,36,13.70
2008,10,22,12,37,13.80
2008,10,22,12,38,13.80
2008,10,22,12,39,13.90
2008,10,22,12,40,14.00
2008,10,22,12,41,14.10
2008,10,22,12,42,14.20
2008,10,22,12,43,14.20
2008,10,22,12,44,14.30
2008,10,22,12,45,14.40
2008,10,22,12,46,14.40
2008,10,22,12,47,14.50
2008,10,22,12,48,14.50
2008,10,22,12,49,14.60
2008,10,22,12,50,14.60
2008,10,22,12,51,14.60
2008,10,22,12,52,14.60
2008,10,22,12,53,14.50
2008,10,22,12,54,14.50
2008,10,22,12,55,14.50
2008,10,22,12,56,14.50
2008,10,22,12,57,14.50
2008,10,22,12,58,14.50
2008,10,22,12,59,14.50
2008,10,22,13,00,14.50
2008,10,22,13,01,14.50
2008,10,22,13,02,14.40
2008,10,22,13,03,14.30
2008,10,22,13,04,14.30
2008,10,22,13,05,14.30
2008,10,22,13,06,14.30
2008,10,22,13,07,14.30
2008,10,22,13,08,14.20
2008,10,22,13,09,14.20
2008,10,22,13,10,14.20
2008,10,22,13,11,14.20
2008,10,22,13,12,14.20
2008,10,22,13,13,14.10
2008,10,22,13,14,14.20
2008,10,22,13,15,14.20
2008,10,22,13,16,14.20
2008,10,22,13,17,14.20
2008,10,22,13,18,14.20
2008,10,22,13,19,14.20
2008,10,22,13,20,14.20
2008,10,22,13,21,14.20
2008,10,22,13,22,14.20
2008,10,22,13,23,14.10
2008,10,22,13,24,14.00
2008,10,22,13,25,14.00
2008,10,22,13,26,14.00
2008,10,22,13,27,13.90
2008,10,22,13,28,13.90
2008,10,22,13,29,13.90
2008,10,22,13,30,13.80
2008,10,22,13,31,13.70
2008,10,22,13,32,13.70
2008,10,22,13,33,13.60
2008,10,22,13,34,13.60
2008,10,22,13,35,13.60
2008,10,22,13,36,13.50
2008,10,22,13,37,13.50
2008,10,22,13,38,13.40
2008,10,22,13,39,13.40
2008,10,22,13,40,13.30
2008,10,22,13,41,13.20
2008,10,22,13,42,13.20
2008,10,22,13,43,13.10
2008,10,22,13,44,13.10
2008,10,22,13,45,13.00
2008,10,22,13,46,13.10
2008,10,22,13,47,13.10
2008,10,22,13,48,13.10
2008,10,22,13,49,13.20
2008,10,22,13,50,13.20
2008,10,22,13,51,13.20
2008,10,22,13,52,13.20
2008,10,22,13,53,13.20
2008,10,22,13,54,13.20
2008,10,22,13,55,13.20
2008,10,22,13,56,13.20
2008,10,22,13,57,13.20
2008,10,22,13,58,13.10
2008,10,22,13,59,13.10
2008,10,22,14,00,13.00
2008,10,22,14,01,13.00
2008,10,22,14,02,13.00
2008,10,22,14,03,12.90
2008,10,22,14,04,12.80
2008,10,22,14,05,12.80
2008,10,22,14,06,12.80
2008,10,22,14,07,12.80
2008,10,22,14,08,12.80
2008,10,22,14,09,12.70
2008,10,22,14,10,12.70
2008,10,22,14,11,12.70
2008,10,22,14,12,12.70
2008,10,22,14,13,12.80
2008,10,22,14,14,12.80
2008,10,22,14,15,12.80
2008,10,22,14,16,12.80
2008,10,22,14,17,12.80
2008,10,22,14,18,12.90
2008,10,22,14,19,12.90
2008,10,22,14,20,12.90
2008,10,22,14,21,12.90
2008,10,22,14,22,13.00
2008,10,22,14,23,13.00
2008,10,22,14,24,13.00
2008,10,22,14,25,13.00
2008,10,22,14,26,13.10
2008,10,22,14,27,13.10
2008,10,22,14,28,13.20
2008,10,22,14,29,13.20
2008,10,22,14,30,13.20
2008,10,22,14,31,13.20
2008,10,22,14,32,13.20
2008,10,22,14,33,13.20
2008,10,22,14,34,13.20
2008,10,22,14,35,13.20
2008,10,22,14,36,13.20
2008,10,22,14,37,13.10
2008,10,22,14,38,13.10
2008,10,22,14,39,13.20
2008,10,22,14,40,13.20
2008,10,22,14,41,13.30
2008,10,22,14,42,13.30
2008,10,22,14,43,13.30
2008,10,22,14,44,13.30
2008,10,22,14,45,13.30
2008,10,22,14,46,13.30
2008,10,22,14,47,13.30
2008,10,22,14,48,13.30
2008,10,22,14,49,13.30
2008,10,22,14,50,13.30
2008,10,22,14,51,13.30
2008,10,22,14,52,13.30
2008,10,22,14,53,13.30
2008,10,22,14,54,13.20
2008,10,22,14,55,13.20
2008,10,22,14,56,13.20
2008,10,22,14,57,13.20
2008,10,22,14,58,13.20
2008,10,22,14,59,13.20
2008,10,22,15,00,13.20
2008,10,22,15,01,13.20
2008,10,22,15,02,13.20
2008,10,22,15,03,13.30
2008,10,22,15,04,13.30
2008,10,22,15,05,13.30
2008,10,22,15,06,13.30
2008,10,22,15,07,13.30
2008,10,22,15,08,13.40
2008,10,22,15,09,13.40
2008,10,22,15,10,13.40
2008,10,22,15,11,13.40
2008,10,22,15,12,13.40
2008,10,22,15,13,13.30
2008,10,22,15,14,13.30
2008,10,22,15,15,13.30
2008,10,22,15,16,13.30
2008,10,22,15,17,13.30
2008,10,22,15,18,13.40
2008,10,22,15,19,13.40
2008,10,22,15,20,13.40
2008,10,22,15,21,13.50
2008,10,22,15,22,13.60
2008,10,22,15,23,13.60
2008,10,22,15,24,13.70
2008,10,22,15,25,13.70
2008,10,22,15,26,13.70
2008,10,22,15,27,13.70
2008,10,22,15,28,13.70
2008,10,22,15,29,13.80
2008,10,22,15,30,13.90
2008,10,22,15,31,14.00
2008,10,22,15,32,14.00
2008,10,22,15,33,14.00
2008,10,22,15,34,14.10
2008,10,22,15,35,14.10
2008,10,22,15,36,14.20
2008,10,22,15,37,14.20
2008,10,22,15,38,14.40
2008,10,22,15,39,14.50
2008,10,22,15,40,14.50
2008,10,22,15,41,14.60
2008,10,22,15,42,14.60
2008,10,22,15,43,14.80
2008,10,22,15,44,14.80
2008,10,22,15,45,14.90
2008,10,22,15,46,15.00
2008,10,22,15,47,15.00
2008,10,22,15,48,15.10
2008,10,22,15,49,15.10
2008,10,22,15,50,15.20
2008,10,22,15,51,15.20
2008,10,22,15,52,15.20
2008,10,22,15,53,15.20
2008,10,22,15,54,15.30
2008,10,22,15,55,15.30
2008,10,22,15,56,15.40
2008,10,22,15,57,15.50
2008,10,22,15,58,15.50
2008,10,22,15,59,15.60
2008,10,22,16,00,15.60
2008,10,22,16,01,15.70
2008,10,22,16,02,15.70
2008,10,22,16,03,15.80
2008,10,22,16,04,15.80
2008,10,22,16,05,15.80
2008,10,22,16,06,15.80
2008,10,22,16,07,15.80
2008,10,22,16,08,15.80
2008,10,22,16,09,15.80
2008,10,22,16,10,15.80
2008,10,22,16,11,15.80
2008,10,22,16,12,15.80
2008,10,22,16,13,15.80
2008,10,22,16,14,15.80
2008,10,22,16,15,15.80
2008,10,22,16,16,15.80
2008,10,22,16,17,15.80
2008,10,22,16,18,15.80
2008,10,22,16,19,15.80
2008,10,22,16,20,15.80
2008,10,22,16,21,15.80
2008,10,22,16,22,15.80
2008,10,22,16,23,15.80
2008,10,22,16,24,15.80
2008,10,22,16,25,15.80
2008,10,22,16,26,15.80
2008,10,22,16,27,15.80
2008,10,22,16,28,15.80
2008,10,22,16,29,15.80
2008,10,22,16,30,15.80
2008,10,22,16,31,15.80
2008,10,22,16,32,15.80
2008,10,22,16,33,15.80
2008,10,22,16,34,15.80
2008,10,22,16,35,15.80
2008,10,22,16,36,15.80
2008,10,22,16,37,15.80
2008,10,22,16,38,15.80
2008,10,22,16,39,15.80
2008,10,22,16,40,15.80
2008,10,22,16,41,15.80
2008,10,22,16,42,15.80
2008,10,22,16,43,15.70
2008,10,22,16,44,15.70
2008,10,22,16,45,15.70
2008,10,22,16,46,15.70
2008,10,22,16,47,15.70
2008,10,22,16,48,15.70
2008,10,22,16,49,15.60
2008,10,22,16,50,15.60
2008,10,22,16,51,15.60
2008,10,22,16,52,15.50
2008,10,22,16,53,15.50
2008,10,22,16,54,15.50
2008,10,22,16,55,15.50
2008,10,22,16,56,15.40
2008,10,22,16,57,15.40
2008,10,22,16,58,15.40
2008,10,22,16,59,15.50
2008,10,22,17,00,15.50
2008,10,22,17,01,15.50
2008,10,22,17,02,15.50
2008,10,22,17,03,15.50
2008,10,22,17,04,15.50
2008,10,22,17,05,15.50
2008,10,22,17,06,15.50
2008,10,22,17,07,15.40
2008,10,22,17,08,15.40
2008,10,22,17,09,15.30
2008,10,22,17,10,15.30
2008,10,22,17,11,15.20
2008,10,22,17,12,15.10
2008,10,22,17,13,15.10
2008,10,22,17,14,15.00
2008,10,22,17,15,15.00
2008,10,22,17,16,14.90
2008,10,22,17,17,14.80
2008,10,22,17,18,14.70
2008,10,22,17,19,14.60
2008,10,22,17,20,14.60
2008,10,22,17,21,14.50
2008,10,22,17,22,14.40
2008,10,22,17,23,14.30
2008,10,22,17,24,14.30
2008,10,22,17,25,14.20
2008,10,22,17,26,14.20
2008,10,22,17,27,14.20
2008,10,22,17,28,14.20
2008,10,22,17,29,14.20
2008,10,22,17,30,14.10
2008,10,22,17,31,14.10
2008,10,22,17,32,14.10
2008,10,22,17,33,14.10
2008,10,22,17,34,14.00
2008,10,22,17,35,14.00
2008,10,22,17,36,13.90
2008,10,22,17,37,13.90
2008,10,22,17,38,13.80
2008,10,22,17,39,13.80
2008,10,22,17,40,13.70
2008,10,22,17,41,13.70
2008,10,22,17,42,13.70
2008,10,22,17,43,13.70
2008,10,22,17,44,13.70
2008,10,22,17,45,13.70
2008,10,22,17,46,13.60
2008,10,22,17,47,13.60
2008,10,22,17,48,13.60
2008,10,22,17,49,13.60
2008,10,22,17,50,13.50
2008,10,22,17,51,13.50
2008,10,22,17,52,13.50
2008,10,22,17,53,13.40
2008,10,22,17,54,13.40
2008,10,22,17,55,13.40
2008,10,22,17,56,13.30
2008,10,22,17,57,13.30
2008,10,22,17,58,13.30
2008,10,22,17,59,13.30
2008,10,22,18,00,13.20
2008,10,22,18,01,13.20
2008,10,22,18,02,13.10
2008,10,22,18,03,13.10
2008,10,22,18,04,13.00
2008,10,22,18,05,13.00
2008,10,22,18,06,12.90
2008,10,22,18,07,12.90
2008,10,22,18,08,12.90
2008,10,22,18,09,12.80
2008,10,22,18,10,12.80
2008,10,22,18,11,12.80
2008,10,22,18,12,12.80
2008,10,22,18,13,12.80
2008,10,22,18,14,12.80
2008,10,22,18,15,12.70
2008,10,22,18,16,12.70
2008,10,22,18,17,12.70
2008,10,22,18,18,12.70
2008,10,22,18,19,12.60
2008,10,22,18,20,12.60
2008,10,22,18,21,12.60
2008,10,22,18,22,12.50
2008,10,22,18,23,12.50
2008,10,22,18,24,12.50
2008,10,22,18,25,12.50
2008,10,22,18,26,12.40
2008,10,22,18,27,12.40
2008,10,22,18,28,12.40
2008,10,22,18,29,12.30
2008,10,22,18,30,12.30
2008,10,22,18,31,12.30